Regional Weather Roundup
Issued by NWS

Home | Current Version | Previous Version | Graphics & Text | Print | Product List | Glossary On
Versions: 1 2 3 4 5 6 7 8 9 10 11 12 13 14 15 16 17 18 19 20 21 22 23 24 25 26 27 28 29 30 31 32 33 34 35 36 37 38 39 40 41 42 43 44 45 46 47 48 49 50
000
ASUS43 KIND 281259
RWRIN

WEATHER ROUNDUP FOR INDIANA
NATIONAL WEATHER SERVICE INDIANAPOLIS IN
900 AM EDT SAT MAR 28 2015

NOTE: "FAIR" INDICATES FEW OR NO CLOUDS BELOW 12,000 FEET WITH NO
SIGNIFICANT WEATHER AND/OR OBSTRUCTIONS TO VISIBILITY.

* - STATION DOES NOT REPORT WEATHER SUCH AS PRECIPITATION OR FOG.

+ - STATION NOT QUALITY CONTROLLED BY THE NATIONAL WEATHER SERVICE.
    USE DATA WITH CAUTION...ESPECIALLY DEWPOINT AND RELATIVE
    HUMIDITY OBSERVATIONS.

INZ001>003-010>013-019-020-281400-
NORTHWEST INDIANA

CITY           SKY/WX    TMP DP  RH WIND       PRES   REMARKS
GARY /AIRPORT/ SUNNY     23   7  50 SE7       30.31R WCI  15

$$

LMZ046-743>745-281400-
SOUTHERN LAKE MICHIGAN

STATION/POSITION TIME  TEMP WIND        PRES
                       AIR  DIR/SP/G
                 (UTC) (F)  (DEG/KT/KT) (MB)
BURNS HARBOR     1200   20  100/  6/  8 1026.4R
MICHIGAN CITY    1200   18   60/  5/  7   N/A

$$

INZ004-005-014>016-021>024-281400-
NORTH CENTRAL INDIANA

CITY           SKY/WX    TMP DP  RH WIND       PRES   REMARKS
GOSHEN         SUNNY     19  10  68 E3        30.28R
SOUTH BEND     SUNNY     19   8  62 NE5       30.30R WCI  12
WARSAW +       SUNNY     19  10  68 E5        30.28R WCI  13

$$

INZ006>009-017-018-025>027-281400-
NORTHEAST INDIANA

CITY           SKY/WX    TMP DP  RH WIND       PRES   REMARKS
ANGOLA *+      SUNNY     16   7  67 N5        30.25R WCI   9
AUBURN +       SUNNY     21   9  58 N7        30.27R WCI  13
FORT WAYNE     SUNNY     20   7  57 NE8       30.27R WCI  10

$$

INZ028-029-035-036-043>045-051>053-281400-
WEST CENTRAL INDIANA

CITY           SKY/WX    TMP DP  RH WIND       PRES   REMARKS
CRAWFORDSVL +  SUNNY     19   9  65 NE7       30.27R WCI  10
GREENCASTLE +  SUNNY     21  12  68 N6        30.27R WCI  14
LAFAYETTE      SUNNY     21  13  71 NE8       30.29R WCI  11
TERRE HAUTE    SUNNY     23  15  71 N8        30.29R WCI  14

$$

INZ030>032-037>040-046>048-054>057-064-065-281400-
CENTRAL INDIANA

CITY           SKY/WX    TMP DP  RH WIND       PRES   REMARKS
ANDERSON       SUNNY     16 N/A N/A N6        30.24  WCI   7
CP ATTERBURY + SUNNY     23  18  80 N7        30.27R WCI  15
COLUMBUS       SUNNY     21  12  68 N9        30.27  WCI  11
FRANKFORT +    SUNNY     21  16  79 N8        30.28R WCI  12
GREENWOOD *+   SUNNY     21  14  73 N8        30.26R WCI  12
INDIANAPOLIS   MOSUNNY   22  13  68 N10       30.25R WCI  11
-EAGLE CREEK   SUNNY     21  13  71 N8        30.25R WCI  11
KOKOMO *+        N/A     21  14  73 NE8       30.27R WCI  12
MT COMFORT *+  SUNNY     23   9  54 N9        30.26R WCI  13
SHELBYVILLE    SUNNY     23  14  68 N9        30.25R WCI  13

$$

INZ033-034-041-042-049-050-058-059-281400-
EAST CENTRAL INDIANA

CITY           SKY/WX    TMP DP  RH WIND       PRES   REMARKS
MUNCIE         SUNNY     21  15  78 E10       30.25R WCI  10

$$

INZ060-061-067>069-081>083-085>088-281400-
SOUTHWEST INDIANA

CITY           SKY/WX    TMP DP  RH WIND       PRES   REMARKS
EVANSVILLE     MOSUNNY   27  15  61 N9        30.29R WCI  18
HUNTINGBURG *+ SUNNY     23  12  63 NE9       30.28R WCI  13

$$

INZ062-063-066-070>080-084-089>092-281400-
SOUTH CENTRAL AND SOUTHEAST INDIANA

CITY           SKY/WX    TMP DP  RH WIND       PRES   REMARKS
BLOOMINGTON    SUNNY     22  15  75 N7        30.25R WCI  13
SEYMOUR +      SUNNY     25  16  68 N8        30.27R WCI  16

$$




USA.gov is the U.S. government's official web portal to all federal, state and local government web resources and services.